TimeEST,TemperatureF,Dew PointF,Humidity,Sea Level PressureIn,VisibilityMPH,Wind Direction,Wind SpeedMPH,Gust SpeedMPH,PrecipitationIn,Events,Conditions,WindDirDegrees,DateUTC
12:53 AM,75.0,66.0,73,30.10,10.0,East,12.7,-,0.00,,Scattered Clouds,90,2011-12-12 05:53:00
1:53 AM,75.0,66.9,76,30.09,10.0,East,15.0,-,N/A,,Scattered Clouds,90,2011-12-12 06:53:00
2:53 AM,73.9,66.0,76,30.07,10.0,ESE,12.7,-,N/A,,Partly Cloudy,110,2011-12-12 07:53:00
3:53 AM,73.9,64.9,73,30.07,10.0,ESE,13.8,-,N/A,,Scattered Clouds,110,2011-12-12 08:53:00
4:53 AM,73.9,66.0,76,30.07,10.0,ESE,11.5,-,N/A,,Scattered Clouds,110,2011-12-12 09:53:00
5:53 AM,73.9,66.0,76,30.08,10.0,ESE,8.1,-,N/A,,Mostly Cloudy,110,2011-12-12 10:53:00
6:53 AM,73.9,64.9,73,30.10,10.0,ESE,9.2,-,N/A,,Partly Cloudy,110,2011-12-12 11:53:00
7:53 AM,75.0,66.0,73,30.12,10.0,East,9.2,-,N/A,,Mostly Cloudy,90,2011-12-12 12:53:00
8:53 AM,77.0,66.9,71,30.13,10.0,East,9.2,-,N/A,,Mostly Cloudy,100,2011-12-12 13:53:00
9:26 AM,77.0,66.2,69,30.14,10.0,East,11.5,-,N/A,,Mostly Cloudy,100,2011-12-12 14:26:00
9:53 AM,79.0,66.0,64,30.14,10.0,East,11.5,-,N/A,,Mostly Cloudy,100,2011-12-12 14:53:00
10:53 AM,79.0,66.9,66,30.15,10.0,ESE,10.4,-,N/A,,Scattered Clouds,120,2011-12-12 15:53:00
11:53 AM,80.1,68.0,67,30.13,10.0,East,10.4,-,N/A,,Scattered Clouds,100,2011-12-12 16:53:00
12:53 PM,80.1,68.0,67,30.11,10.0,ESE,9.2,17.3,N/A,,Mostly Cloudy,120,2011-12-12 17:53:00
1:53 PM,80.1,68.0,67,30.08,10.0,SE,8.1,-,N/A,,Mostly Cloudy,140,2011-12-12 18:53:00
2:53 PM,77.0,69.1,76,30.08,6.0,ESE,5.8,-,0.00,Rain,Light Rain,120,2011-12-12 19:53:00
3:06 PM,73.4,69.8,88,30.08,1.8,West,8.1,-,0.06,Rain,Light Rain,260,2011-12-12 20:06:00
3:11 PM,73.4,69.8,88,30.08,2.0,SSW,9.2,-,0.15,Rain,Rain,210,2011-12-12 20:11:00
3:13 PM,73.4,69.8,88,30.08,5.0,South,9.2,-,0.15,Rain,Rain,180,2011-12-12 20:13:00
3:19 PM,73.4,69.8,88,30.08,8.0,South,5.8,-,0.15,Rain,Light Rain,180,2011-12-12 20:19:00
3:53 PM,75.9,70.0,82,30.08,10.0,East,6.9,-,0.15,,Mostly Cloudy,100,2011-12-12 20:53:00
4:53 PM,73.9,69.1,85,30.08,9.0,ESE,4.6,-,0.00,Rain,Light Rain,120,2011-12-12 21:53:00
5:53 PM,73.0,70.0,90,30.09,10.0,Calm,Calm,-,0.00,,Mostly Cloudy,0,2011-12-12 22:53:00
6:53 PM,71.1,68.0,90,30.11,5.0,NE,8.1,-,0.07,Rain,Light Rain,40,2011-12-12 23:53:00
7:53 PM,72.0,66.9,84,30.12,10.0,NE,3.5,-,0.00,,Overcast,50,2011-12-13 00:53:00
8:53 PM,73.0,68.0,84,30.14,10.0,NE,5.8,-,N/A,,Mostly Cloudy,50,2011-12-13 01:53:00
9:53 PM,73.9,69.1,85,30.14,10.0,ENE,11.5,-,0.00,Rain,Light Rain,70,2011-12-13 02:53:00
10:53 PM,73.9,68.0,82,30.14,10.0,ENE,10.4,-,0.00,,Mostly Cloudy,60,2011-12-13 03:53:00
11:53 PM,73.9,69.1,85,30.14,10.0,ENE,6.9,-,N/A,,Mostly Cloudy,70,2011-12-13 04:53:00